Weather History for Telfer, WE

Change the Weather History Date:

Monday, March 18, 2013

  Actual Average Record
Temperature  
Mean Temperature 92 °F -  
Max Temperature 107 °F - - ()
Min Temperature 77 °F - - ()
Cooling Degree Days 27    
Growing Degree Days 42 (Base 50)    
Moisture  
Dew Point 48 °F    
Average Humidity 20    
Maximum Humidity 39    
Minimum Humidity 6    
Precipitation  
Precipitation 0.00 in - - ()
Sea Level Pressure  
Sea Level Pressure 29.82 in    
Wind  
Wind Speed 9 mph ()    
Max Wind Speed 15 mph    
Max Gust Speed -    
T = Trace of Precipitation, MM = Missing Value Source: Averaged Metar Reports

Daily Weather History Graph

Daily Weather History Graph

Search for Another Location

Airport:

Trip Planner

Search our weather history database for the weather conditions in past years. The results will help you decide how hot, cold, wet, or windy it might be!

Date:

Astronomy

Mar. 18, 2013 Rise Set
Actual Time 5:54 AM AWST 6:03 PM AWST
Civil Twilight 5:31 AM AWST 6:26 PM AWST
Nautical Twilight 5:05 AM AWST 6:52 PM AWST
Astronomical Twilight 4:39 AM AWST 7:18 PM AWST
Moon 11:17 AM AWST (3/18) 10:31 PM AWST (3/18)
Length of Visible Light 12h 54m
Length of Day
12h 09m
Waxing Crescent, 36% of the Moon is Illuminated
Mar 18
Waxing Crescent
Mar 20
First Quarter
Mar 27
Full
Apr 3
Last Quarter
Apr 10
New

Hourly Weather History & Observations

Time (AWST) Temp. Heat Index Dew Point Humidity Pressure Visibility Wind Dir Wind Speed Gust Speed Precip Events Conditions
12:00 AM 89 °F - 49 °F 16% 29.78 in - SSE 10.4 mph - -  
12:00 AM 89.6 °F - 48.2 °F 24% 29.83 in - SSE 10.4 mph - N/A   Unknown
1:00 AM 84.2 °F - 50.0 °F 30% 29.83 in - SSE 8.1 mph - N/A   Unknown
2:00 AM 82 °F - 49 °F 21% 29.77 in - SE 10.4 mph - -  
2:00 AM 82.4 °F - 48.2 °F 30% 29.83 in - SE 10.4 mph - N/A   Unknown
3:00 AM 77 °F - 51 °F 29% 29.78 in - SE 9.2 mph - -  
3:00 AM 77.0 °F - 50.0 °F 39% 29.83 in - SE 9.2 mph - N/A   Unknown
4:00 AM 80.6 °F - 50.0 °F 34% 29.83 in - SE 11.5 mph - N/A   Unknown
5:00 AM 80 °F - 49 °F 23% 29.79 in - SE 11.5 mph - -  
5:00 AM 80.6 °F - 48.2 °F 32% 29.86 in - SE 11.5 mph - N/A   Unknown
6:00 AM 80 °F - 48 °F 22% 29.81 in - SE 12.7 mph - -  
6:00 AM 78.8 °F - 48.2 °F 34% 29.86 in - SE 12.7 mph - N/A   Unknown
7:00 AM 82.4 °F - 50.0 °F 32% 29.89 in - SE 11.5 mph - N/A   Unknown
8:00 AM 89 °F - 51 °F 18% 29.84 in - SE 9.2 mph - -  
8:00 AM 89.6 °F - 51.8 °F 27% 29.89 in - SE 9.2 mph - N/A   Unknown
9:00 AM 96.8 °F - 50.0 °F 20% 29.92 in - East 10.4 mph - N/A   Unknown
10:00 AM 102.2 °F - 44.6 °F 14% 29.89 in - ENE 15.0 mph - N/A   Unknown
11:00 AM 104 °F - 46 °F 7% 29.83 in - ENE 13.8 mph - -  
11:00 AM 104.0 °F - 46.4 °F 14% 29.89 in - ENE 13.8 mph - N/A   Unknown
12:00 PM 105 °F - 42 °F 6% 29.80 in - NE 11.5 mph - -  
12:00 PM 105.8 °F - 42.8 °F 12% 29.86 in - NE 11.5 mph - N/A   Unknown
1:00 PM 105.8 °F - 42.8 °F 12% 29.83 in - NE 11.5 mph - N/A   Unknown
2:00 PM 106 °F - 43 °F 6% 29.75 in - ENE 11.5 mph - -  
2:00 PM 105.8 °F - 42.8 °F 12% 29.80 in - ENE 11.5 mph - N/A   Unknown
3:00 PM 106 °F - 43 °F 6% 29.74 in - East 11.5 mph - -  
3:00 PM 105.8 °F - 42.8 °F 12% 29.80 in - East 11.5 mph - N/A   Unknown
4:00 PM 105.8 °F - 42.8 °F 12% 29.80 in - NE 9.2 mph - N/A   Unknown
5:00 PM 104 °F - 44 °F 7% 29.74 in - SE 8.1 mph - -  
5:00 PM 104.0 °F - 42.8 °F 12% 29.80 in - SE 8.1 mph - N/A   Unknown
6:00 PM 97 °F - 51 °F 13% 29.76 in - East 5.8 mph - -  
6:00 PM 96.8 °F - 50.0 °F 20% 29.83 in - East 5.8 mph - N/A   Unknown
7:00 PM 93.2 °F - 51.8 °F 24% 29.83 in - SE 4.6 mph - N/A   Unknown
8:00 PM 92 °F - 50 °F 15% 29.80 in - SE 6.9 mph - -  
8:00 PM 91.4 °F - 50.0 °F 24% 29.86 in - SE 6.9 mph - N/A   Unknown
9:00 PM 92 °F - 49 °F 14% 29.81 in - SSE 6.9 mph - -  
9:00 PM 93.2 °F - 50.0 °F 23% 29.86 in - SSE 6.9 mph - N/A   Unknown
10:00 PM 87.8 °F - 51.8 °F 29% 29.86 in - SSE 4.6 mph - N/A   Unknown
11:00 PM 89 °F - 54 °F 21% 29.80 in - SSE 6.9 mph - -  
11:00 PM 87.8 °F 85.7 °F 53.6 °F 31% 29.86 in - SSE 6.9 mph - N/A   Unknown